{"data":{"norad_id":47378,"epoch":"2026-09-20T02:06:03.266784Z","epoch_age_seconds":57529,"freshness":"FRESH","line1":"1 47378U 21005AF  26263.08753781  .00006353  00000+0  21638-3 0  9994","line2":"2 47378  53.1612 189.4811 0001606  93.5001 266.6184 15.31691755313500","mean_motion":15.31691755,"eccentricity":0.0001606,"inclination_deg":53.1612,"raan_deg":189.4811,"arg_perigee_deg":93.5001,"mean_anomaly_deg":266.6184,"bstar":0.00021638,"rev_number":31350,"period_min":94.013694028143,"perigee_km":469.6646396592,"apogee_km":471.86450684453,"semimajor_km":6848.9015732519,"source":"CELESTRAK","updated_at":"2026-09-20T09:00:38.592355Z"}}